�������l�o���
Date,Time,MP-1(��Sv/h),MP-2(��Sv/h),MP-3(��Sv/h),MP-4(��Sv/h),MP-5(��Sv/h),MP-6(��Sv/h),MP-7(��Sv/h),����,����(m/s),���J
2013/08/18,00:00,0.9,0.6,0.9,0.9,0.8,0.4,0.3,��쐼,8.9,��
2013/08/18,00:10,0.9,0.6,0.9,0.9,0.8,0.4,0.3,��쐼,8.5,��
2013/08/18,00:20,0.9,0.6,0.9,0.9,0.8,0.4,0.3,��쐼,8.0,��
2013/08/18,00:30,0.9,0.6,0.9,0.9,0.8,0.4,0.3,��쐼,8.1,��
2013/08/18,00:40,0.9,0.6,0.9,0.9,0.8,0.4,0.3,��쐼,8.1,��
2013/08/18,00:50,0.9,0.6,0.9,0.9,0.8,0.4,0.3,��쐼,7.6,��
2013/08/18,01:00,0.9,0.6,0.9,0.9,0.8,0.4,0.3,��쐼,7.5,��
2013/08/18,01:10,0.9,0.6,0.9,0.9,0.8,0.4,0.3,��쐼,7.2,��
2013/08/18,01:20,0.9,0.6,0.9,0.9,0.8,0.4,0.3,��쐼,6.5,��
2013/08/18,01:30,0.9,0.6,0.9,0.9,0.8,0.4,0.3,��쐼,6.2,��
2013/08/18,01:40,0.9,0.6,0.9,0.9,0.8,0.4,0.3,��쐼,6.4,��
2013/08/18,01:50,0.9,0.6,0.9,0.9,0.8,0.4,0.3,��쐼,5.9,��
2013/08/18,02:00,0.9,0.6,0.9,0.9,0.8,0.4,0.3,��쐼,5.8,��
2013/08/18,02:10,0.9,0.6,0.9,0.9,0.8,0.4,0.3,��쐼,5.8,��
2013/08/18,02:20,0.9,0.6,0.9,0.9,0.8,0.4,0.3,��쐼,5.0,��
2013/08/18,02:30,0.9,0.6,0.9,0.9,0.8,0.4,0.3,��쐼,3.9,��
2013/08/18,02:40,0.9,0.6,0.9,0.9,0.8,0.4,0.3,��쐼,3.3,��
2013/08/18,02:50,0.9,0.6,0.9,0.9,0.8,0.4,0.3,��쐼,3.1,��
2013/08/18,03:00,0.9,0.6,0.9,0.9,0.8,0.4,0.3,��쐼,3.3,��
2013/08/18,03:10,0.9,0.6,0.9,0.9,0.8,0.4,0.3,��쐼,4.0,��
2013/08/18,03:20,0.9,0.6,0.9,0.9,0.8,0.4,0.3,��쐼,5.0,��
2013/08/18,03:30,0.9,0.6,0.9,0.9,0.8,0.4,0.3,��,4.5,��
2013/08/18,03:40,0.9,0.6,0.9,0.9,0.8,0.4,0.3,��,5.3,��
2013/08/18,03:50,0.9,0.6,0.9,0.9,0.8,0.4,0.3,��쐼,4.7,��
2013/08/18,04:00,0.9,0.6,0.9,0.9,0.8,0.4,0.3,��쐼,4.9,��
2013/08/18,04:10,0.9,0.6,0.9,0.9,0.8,0.4,0.3,��쐼,5.6,��
2013/08/18,04:20,0.9,0.6,0.9,0.9,0.8,0.4,0.3,��쐼,5.9,��
2013/08/18,04:30,0.9,0.6,0.9,0.9,0.8,0.4,0.3,��쐼,7.0,��
2013/08/18,04:40,0.9,0.6,0.9,0.9,0.8,0.4,0.3,��쐼,6.4,��
2013/08/18,04:50,0.9,0.6,0.9,0.9,0.8,0.4,0.3,��쐼,6.4,��
2013/08/18,05:00,0.9,0.6,0.9,0.9,0.8,0.4,0.3,��쐼,6.5,��
2013/08/18,05:10,0.9,0.6,0.9,0.9,0.8,0.4,0.3,��쐼,6.8,��
2013/08/18,05:20,0.9,0.6,0.9,0.9,0.8,0.4,0.3,��쐼,7.7,��
2013/08/18,05:30,0.9,0.6,0.9,0.9,0.8,0.4,0.3,��쐼,8.6,��
2013/08/18,05:40,0.9,0.6,0.9,0.9,0.8,0.4,0.3,��쐼,7.9,��
2013/08/18,05:50,0.9,0.6,0.9,0.9,0.8,0.4,0.3,��쐼,7.0,��
2013/08/18,06:00,0.9,0.6,0.9,0.9,0.8,0.4,0.3,��쐼,7.2,��
2013/08/18,06:10,0.9,0.6,0.9,0.9,0.8,0.4,0.3,��쐼,7.0,��
2013/08/18,06:20,0.9,0.6,0.9,0.9,0.8,0.4,0.3,��쐼,6.9,��
2013/08/18,06:30,0.9,0.6,0.9,0.9,0.8,0.4,0.3,��쐼,6.0,��
2013/08/18,06:40,0.9,0.6,0.9,0.9,0.8,0.4,0.3,��쐼,5.3,��
2013/08/18,06:50,0.9,0.6,0.9,0.9,0.8,0.4,0.3,��쐼,5.0,��
2013/08/18,07:00,0.9,0.6,0.9,0.9,0.8,0.4,0.3,��쐼,5.3,��
2013/08/18,07:10,0.9,0.6,0.9,0.9,0.8,0.4,0.3,��쐼,5.4,��
2013/08/18,07:20,0.9,0.6,0.9,0.9,0.8,0.4,0.3,��쐼,4.5,��
2013/08/18,07:30,0.9,0.6,0.9,0.9,0.8,0.4,0.3,��쐼,4.8,��
2013/08/18,07:40,0.9,0.6,0.9,0.9,0.8,0.4,0.3,��쐼,4.5,��
2013/08/18,07:50,0.9,0.6,0.9,0.9,0.8,0.4,0.3,��쐼,5.3,��
2013/08/18,08:00,0.9,0.6,0.9,0.9,0.8,0.4,0.3,��쐼,5.2,��
2013/08/18,08:10,0.9,0.6,0.9,0.9,0.8,0.4,0.3,��쐼,5.1,��
2013/08/18,08:20,0.9,0.6,0.9,0.9,0.8,0.4,0.3,��쐼,5.0,��
2013/08/18,08:30,0.9,0.6,0.9,0.9,0.8,0.4,0.3,��,4.5,��
2013/08/18,08:40,0.9,0.6,0.9,0.9,0.8,0.4,0.3,��쐼,5.0,��
2013/08/18,08:50,0.9,0.6,0.9,0.9,0.8,0.4,0.3,��,5.4,��
2013/08/18,09:00,0.9,0.6,0.9,0.9,0.8,0.4,0.3,��,4.8,��
2013/08/18,09:10,0.9,0.6,0.9,0.9,0.8,0.4,0.3,��,4.6,��
2013/08/18,09:20,0.9,0.6,0.9,0.9,0.8,0.4,0.3,��,4.6,��
2013/08/18,09:30,0.9,0.6,0.9,0.9,0.8,0.4,0.3,��,5.8,��
2013/08/18,09:40,0.9,0.6,0.9,0.9,0.8,0.4,0.3,��,5.5,��
2013/08/18,09:50,0.9,0.6,0.9,0.9,0.8,0.4,0.3,��,5.4,��
2013/08/18,10:00,0.9,0.6,0.9,0.9,0.8,0.4,0.3,��,5.1,��
2013/08/18,10:10,0.9,0.6,0.9,0.9,0.8,0.4,0.3,��,5.6,��
2013/08/18,10:20,0.9,0.6,0.9,0.9,0.8,0.4,0.3,��,5.6,��
2013/08/18,10:30,0.9,0.6,0.9,0.9,0.8,0.4,0.3,��,5.4,��
2013/08/18,10:40,0.9,0.6,0.9,0.9,0.8,0.4,0.3,��,6.1,��
2013/08/18,10:50,0.9,0.6,0.9,0.9,0.8,0.4,0.3,��,7.6,��
2013/08/18,11:00,0.9,0.6,0.9,0.9,0.8,0.4,0.3,��,7.8,��
2013/08/18,11:10,0.9,0.6,0.9,0.9,0.8,0.4,0.3,��,9.4,��
2013/08/18,11:20,0.9,0.6,0.9,0.9,0.8,0.4,0.3,��,7.8,��
2013/08/18,11:30,0.9,0.6,0.9,0.9,0.8,0.4,0.3,��,7.2,��
2013/08/18,11:40,0.9,0.6,0.9,0.9,0.8,0.4,0.3,��,8.5,��
2013/08/18,11:50,0.9,0.6,0.9,0.9,0.8,0.4,0.3,��,8.3,��
2013/08/18,12:00,0.9,0.6,0.9,0.9,0.8,0.4,0.3,��,9.2,��
2013/08/18,12:10,0.9,0.6,0.9,0.9,0.8,0.4,0.3,��,8.6,��
2013/08/18,12:20,0.9,0.6,0.9,0.9,0.8,0.4,0.3,��,10.0,��
2013/08/18,12:30,0.9,0.6,0.9,0.9,0.8,0.4,0.3,��,9.5,��
2013/08/18,12:40,0.9,0.6,0.9,0.9,0.8,0.4,0.3,��,9.5,��
2013/08/18,12:50,0.9,0.6,0.9,0.9,0.8,0.4,0.3,��,9.8,��
2013/08/18,13:00,0.9,0.6,0.9,0.9,0.8,0.4,0.3,��,9.1,��
2013/08/18,13:10,0.9,0.6,0.9,0.9,0.8,0.4,0.3,��,9.1,��
2013/08/18,13:20,0.9,0.6,0.9,0.9,0.8,0.4,0.3,��,10.1,��
2013/08/18,13:30,0.9,0.6,0.9,0.9,0.8,0.4,0.3,��,10.4,��
2013/08/18,13:40,0.9,0.6,0.9,0.9,0.8,0.4,0.3,��,11.0,��
2013/08/18,13:50,0.9,0.6,0.9,0.9,0.8,0.4,0.3,��,10.8,��
2013/08/18,14:00,0.9,0.6,0.9,0.9,0.8,0.4,0.3,��,9.8,��
2013/08/18,14:10,0.9,0.6,0.9,0.9,0.8,0.4,0.3,��,10.0,��
2013/08/18,14:20,0.9,0.6,0.9,0.9,0.8,0.4,0.3,��,10.0,��
2013/08/18,14:30,0.9,0.6,0.9,0.9,0.8,0.4,0.3,��,10.5,��
2013/08/18,14:40,0.9,0.6,0.9,0.9,0.8,0.4,0.3,��,9.4,��
2013/08/18,14:50,0.9,0.6,0.9,0.9,0.8,0.4,0.3,��,8.9,��
2013/08/18,15:00,0.9,0.6,0.9,0.9,0.8,0.4,0.3,��,8.3,��
2013/08/18,15:10,0.9,0.6,0.9,0.9,0.8,0.4,0.3,��,8.7,��
2013/08/18,15:20,0.9,0.6,0.9,0.9,0.8,0.4,0.3,��쐼,8.9,��
2013/08/18,15:30,0.9,0.6,0.9,0.9,0.8,0.4,0.3,��쐼,8.4,��
2013/08/18,15:40,0.9,0.6,0.9,0.9,0.8,0.4,0.3,��쐼,8.2,��
2013/08/18,15:50,0.9,0.6,0.9,0.9,0.8,0.4,0.3,��쐼,8.1,��
2013/08/18,16:00,0.9,0.6,0.9,0.9,0.8,0.4,0.3,��쐼,8.4,��
2013/08/18,16:10,0.9,0.6,0.9,0.9,0.8,0.4,0.3,��쐼,8.2,��
2013/08/18,16:20,0.9,0.6,0.9,0.9,0.8,0.4,0.3,��쐼,6.3,��
2013/08/18,16:30,0.9,0.6,0.9,0.9,0.8,0.4,0.3,��쐼,8.3,��
2013/08/18,16:40,0.9,0.6,0.9,0.9,0.8,0.4,0.3,��쐼,5.8,��
2013/08/18,16:50,0.9,0.6,0.9,0.9,0.8,0.4,0.3,��쐼,6.2,��
2013/08/18,17:00,0.9,0.6,0.9,0.9,0.8,0.4,0.3,��쐼,6.2,��
2013/08/18,17:10,0.9,0.6,0.9,0.9,0.8,0.4,0.3,��쐼,6.4,��
2013/08/18,17:20,0.9,0.6,0.9,0.9,0.8,0.4,0.3,��쐼,7.4,��
2013/08/18,17:30,0.9,0.6,0.9,0.9,0.8,0.4,0.3,��쐼,7.8,��
2013/08/18,17:40,0.9,0.6,0.9,0.9,0.8,0.4,0.3,��쐼,8.3,��
2013/08/18,17:50,0.9,0.6,0.9,0.9,0.8,0.4,0.3,��쐼,8.6,��
2013/08/18,18:00,0.9,0.6,0.9,0.9,0.8,0.4,0.3,��쐼,7.9,��
2013/08/18,18:10,0.9,0.6,0.9,0.9,0.8,0.4,0.3,��쐼,8.1,��
2013/08/18,18:20,0.9,0.6,0.9,0.9,0.8,0.4,0.3,��쐼,7.8,��
2013/08/18,18:30,0.9,0.6,0.9,0.9,0.8,0.4,0.3,��쐼,7.9,��
2013/08/18,18:40,0.9,0.6,0.9,0.9,0.8,0.4,0.3,��쐼,7.0,��
2013/08/18,18:50,0.9,0.6,0.9,0.9,0.8,0.4,0.3,��쐼,9.5,��
2013/08/18,19:00,0.9,0.6,0.9,0.9,0.8,0.4,0.3,��쐼,9.3,��
2013/08/18,19:10,0.9,0.6,0.9,0.9,0.8,0.4,0.3,��쐼,9.3,��
2013/08/18,19:20,0.9,0.6,0.9,0.9,0.8,0.4,0.3,��쐼,8.0,��
2013/08/18,19:30,0.9,0.6,0.9,0.9,0.8,0.4,0.3,��쐼,8.0,��
2013/08/18,19:40,0.9,0.6,0.9,0.9,0.8,0.4,0.3,��쐼,7.0,��
2013/08/18,19:50,0.9,0.6,0.9,0.9,0.8,0.4,0.3,��쐼,7.8,��
2013/08/18,20:00,0.9,0.6,0.9,0.9,0.8,0.4,0.3,��쐼,7.3,��
2013/08/18,20:10,0.9,0.6,0.9,0.9,0.8,0.4,0.3,��쐼,7.9,��
2013/08/18,20:20,0.9,0.6,0.9,0.9,0.8,0.4,0.3,��쐼,7.3,��
2013/08/18,20:30,0.9,0.6,0.9,0.9,0.8,0.4,0.3,��쐼,7.2,��
2013/08/18,20:40,0.9,0.6,0.9,0.9,0.8,0.4,0.3,��쐼,7.4,��
2013/08/18,20:50,0.9,0.6,0.9,0.9,0.8,0.4,0.3,��쐼,7.3,��
2013/08/18,21:00,0.9,0.6,0.9,0.9,0.8,0.4,0.3,��쐼,7.1,��
2013/08/18,21:10,0.9,0.6,0.9,0.9,0.8,0.4,0.3,��쐼,7.5,��
2013/08/18,21:20,0.9,0.6,0.9,0.9,0.8,0.4,0.3,��쐼,7.9,��
2013/08/18,21:30,0.9,0.6,0.9,0.9,0.8,0.4,0.3,��쐼,8.1,��
2013/08/18,21:40,0.9,0.6,0.9,0.9,0.8,0.4,0.3,��쐼,7.5,��
2013/08/18,21:50,0.9,0.6,0.9,0.9,0.8,0.4,0.3,��쐼,7.2,��
2013/08/18,22:00,0.9,0.6,0.9,0.9,0.8,0.4,0.3,��쐼,8.6,��
2013/08/18,22:10,0.9,0.6,0.9,0.9,0.8,0.4,0.3,��쐼,8.1,��
2013/08/18,22:20,0.9,0.6,0.9,0.9,0.8,0.4,0.3,��쐼,8.1,��
2013/08/18,22:30,0.9,0.6,0.9,0.9,0.8,0.4,0.3,��쐼,8.1,��
2013/08/18,22:40,0.9,0.6,0.9,0.9,0.8,0.4,0.3,��쐼,7.0,��
2013/08/18,22:50,0.9,0.6,0.9,0.9,0.8,0.4,0.3,��쐼,6.9,��
2013/08/18,23:00,0.9,0.6,0.9,0.9,0.8,0.4,0.3,��쐼,6.8,��
2013/08/18,23:10,0.9,0.6,0.9,0.9,0.8,0.4,0.3,�쐼,6.9,��
2013/08/18,23:20,0.9,0.6,0.9,0.9,0.8,0.4,0.3,�쐼,5.9,��
2013/08/18,23:30,0.9,0.6,0.9,0.9,0.8,0.4,0.3,�쐼,5.3,��
2013/08/18,23:40,0.9,0.6,0.9,0.9,0.8,0.4,0.3,��쐼,5.3,��
2013/08/18,23:50,0.9,0.6,0.9,0.9,0.8,0.4,0.3,�쐼,5.8,��
